San Angelo, TX

1:51 AM CST on January 17, 2018 (GMT -0600)
San Angelo Regional-Mathis

Weather History for KSJT - July, 2014

Change the Weather History Date:

Monday, July 7, 2014

  Actual Average Record
Temperature  
Mean Temperature 84 °F 83 °F  
Max Temperature 95 °F 95 °F 108 °F (1994)
Min Temperature 73 °F 71 °F 62 °F (1958)
Degree Days  
Heating Degree Days 0 0  
Month to date heating degree days 0 0  
Since 1 June heating degree days 0 0  
Since 1 July heating degree days 0 0  
Cooling Degree Days 19 18  
Month to date cooling degree days 131 122  
Year to date cooling degree days 1217 1046  
Since 1 June cooling degree days 615 586  
Growing Degree Days 34 (Base 50)    
Moisture  
Dew Point 59 °F    
Average Humidity 49    
Maximum Humidity 74    
Minimum Humidity 24    
Precipitation  
Precipitation 0.00 in 0.04 in 1.80 in (1945)
Month to date precipitation 0.00 0.32  
Year to date precipitation 10.56 10.93  
Sea Level Pressure  
Sea Level Pressure 29.92 in    
Wind  
Wind Speed 11 mph (South)    
Max Wind Speed 20 mph    
Max Gust Speed 25 mph    
Visibility 10 miles    
Events      
T = Trace of Precipitation, MM = Missing Value Source: NWS Daily Summary

Daily Weather History Graph

Daily Weather History Graph

Search for Another Location

Airport or City:

Trip Planner

Search our weather history database for the weather conditions in past years. The results will help you decide how hot, cold, wet, or windy it might be!

Date:

Astronomy

Jul. 07, 2014 Rise Set
Actual Time 6:43 AM CDT 8:49 PM CDT
Civil Twilight 6:16 AM CDT 9:17 PM CDT
Nautical Twilight 5:42 AM CDT 9:51 PM CDT
Astronomical Twilight 5:06 AM CDT 10:27 PM CDT
Moon 4:03 PM CDT (7/7) 2:27 AM CDT (7/7)
Length of Visible Light 15h 01m
Length of Day
14h 05m
Waxing Gibbous, 72% of the Moon is Illuminated
Jul 7
Waxing Gibbous
Jul 12
Full
Jul 18
Last Quarter
Jul 26
New
Aug 3
First Quarter

Hourly Weather History & Observations

Time (CDT) Temp. Heat Index Dew Point Humidity Pressure Visibility Wind Dir Wind Speed Gust Speed Precip Events Conditions
12:51 AM 82.0 °F 82.4 °F 60.1 °F 47% 29.93 in 10.0 mi South 8.1 mph - N/A   Clear
1:51 AM 80.1 °F 81.1 °F 61.0 °F 52% 29.92 in 10.0 mi South 6.9 mph - N/A   Clear
2:51 AM 80.1 °F 81.1 °F 61.0 °F 52% 29.91 in 10.0 mi South 10.4 mph - N/A   Clear
3:51 AM 79.0 °F - 63.0 °F 58% 29.92 in 10.0 mi South 10.4 mph - N/A   Clear
4:51 AM 78.1 °F - 64.0 °F 62% 29.92 in 10.0 mi South 9.2 mph - N/A   Partly Cloudy
5:51 AM 75.9 °F - 64.9 °F 69% 29.94 in 10.0 mi South 8.1 mph - N/A   Clear
6:51 AM 73.9 °F - 64.9 °F 73% 29.95 in 10.0 mi SW 4.6 mph - N/A   Clear
7:51 AM 75.0 °F - 66.0 °F 73% 29.96 in 10.0 mi South 6.9 mph - N/A   Clear
8:51 AM 79.0 °F - 64.9 °F 62% 29.97 in 10.0 mi South 10.4 mph - N/A   Clear
9:51 AM 82.9 °F 84.4 °F 64.0 °F 53% 29.96 in 10.0 mi South 15.0 mph - N/A   Clear
10:51 AM 87.1 °F 87.5 °F 62.1 °F 43% 29.95 in 10.0 mi South 16.1 mph - N/A   Clear
11:51 AM 89.1 °F 89.0 °F 61.0 °F 39% 29.96 in 10.0 mi South 17.3 mph 25.3 mph N/A   Clear
12:51 PM 91.0 °F 90.2 °F 59.0 °F 34% 29.95 in 10.0 mi SSE 17.3 mph 23.0 mph N/A   Clear
1:51 PM 91.9 °F 90.8 °F 57.9 °F 32% 29.93 in 10.0 mi South 9.2 mph - N/A   Clear
2:51 PM 93.0 °F 91.1 °F 55.0 °F 28% 29.92 in 10.0 mi South 11.5 mph - N/A   Clear
3:51 PM 93.9 °F - 52.0 °F 24% 29.91 in 10.0 mi South 12.7 mph - N/A   Clear
4:51 PM 93.0 °F - 52.0 °F 25% 29.89 in 10.0 mi SSE 12.7 mph - N/A   Clear
5:51 PM 93.9 °F - 52.0 °F 24% 29.87 in 10.0 mi South 12.7 mph - N/A   Clear
6:51 PM 93.0 °F - 51.1 °F 24% 29.86 in 10.0 mi SSE 12.7 mph - N/A   Clear
7:51 PM 91.0 °F - 52.0 °F 26% 29.86 in 10.0 mi SSE 5.8 mph - N/A   Clear
8:51 PM 86.0 °F 84.7 °F 55.9 °F 36% 29.87 in 10.0 mi SE 5.8 mph - N/A   Clear
9:51 PM 84.9 °F 83.3 °F 54.0 °F 34% 29.88 in 10.0 mi SE 11.5 mph - N/A   Clear
10:51 PM 82.9 °F 82.1 °F 55.9 °F 39% 29.91 in 10.0 mi SSE 10.4 mph - N/A   Clear
11:51 PM 82.9 °F 82.6 °F 57.9 °F 42% 29.92 in 10.0 mi SSE 8.1 mph - N/A   Clear